Theta_e
344 345 348 353 353 353 352 353 353 353 354 354 354 354 354 354 354 353 354 354 353 354 354 354 354 354 353 353 353 353 353 353 353 353 353 352 352 352 351 350 349 348 349 350 349 347 345 345 344 344 344 341 341 342 345 346 345 345 346 346 347 347 346 345 345 345 344 343 343 343 343 344 345 345 345 343 343 342 341 342 342 338 337 338 341
341 346 349 350 353 353 352 352 353 353 353 354 354 354 354 354 354 353 354 354 354 354 354 354 353 353 353 353 353 353 353 353 352 352 352 352 352 351 351 349 349 349 349 348 348 348 348 346 344 343 342 342 342 342 343 345 346 346 347 347 347 346 344 344 344 345 345 345 345 344 344 344 344 344 344 343 342 341 340 340 340 336 334 339 339
344 346 348 350 353 352 351 352 352 353 353 353 354 353 353 354 353 353 353 354 354 354 353 353 353 353 353 352 353 352 352 352 352 352 352 352 352 351 351 350 349 349 349 349 348 348 348 347 345 343 343 341 341 342 344 345 346 346 347 347 347 346 345 345 345 346 346 346 346 345 344 344 343 343 343 343 342 341 341 340 339 339 334 338 338
344 346 348 349 352 352 352 352 352 353 353 353 353 353 353 353 353 354 354 354 354 353 353 353 353 353 353 352 352 352 352 352 352 352 352 352 351 351 350 350 350 350 349 349 348 348 348 348 347 345 343 342 343 344 345 345 345 345 345 345 345 345 346 345 346 346 346 346 345 343 342 335 339 342 342 342 341 341 340 341 339 338 338 339 339
345 347 347 347 349 352 352 352 353 352 353 353 353 354 354 354 354 354 354 353 353 353 353 353 353 353 353 353 353 352 352 352 351 351 351 351 351 351 350 350 350 350 349 349 349 348 347 346 347 346 344 343 344 345 345 345 345 344 344 344 343 344 344 344 345 346 346 346 344 343 335 336 335 341 341 341 340 339 340 340 338 338 337 338 338
344 345 346 348 348 350 352 352 353 352 353 353 353 354 354 354 354 354 354 354 354 353 353 353 353 353 353 352 352 352 352 352 351 351 351 351 351 350 350 350 350 349 349 348 348 348 348 348 347 346 344 344 344 344 344 344 344 344 344 343 343 343 343 342 343 342 341 343 345 340 335 335 336 338 340 340 339 339 339 339 339 338 337 337 337
344 346 347 348 348 350 353 352 352 353 353 353 354 354 354 354 354 354 354 353 353 353 353 353 352 352 352 352 352 351 351 351 351 351 351 350 350 350 350 350 350 350 349 348 347 346 346 346 345 345 344 344 344 343 343 343 343 343 343 343 344 344 345 345 345 345 344 344 333 335 334 335 335 335 341 340 341 339 339 338 339 338 338 337 337
346 347 347 348 349 351 353 352 352 353 353 354 354 354 354 354 354 354 354 353 353 353 352 352 352 352 351 351 351 350 350 350 350 350 350 350 350 350 349 349 348 348 348 348 347 346 346 346 346 345 344 344 344 343 344 344 344 344 343 345 344 345 345 345 347 346 344 339 333 334 334 334 334 335 340 341 340 338 338 338 338 337 338 336 340
344 346 348 349 349 352 352 353 352 353 353 354 354 354 354 354 353 353 353 353 353 353 353 352 352 351 351 350 350 350 350 350 349 349 349 349 349 349 349 349 348 346 345 345 346 346 347 347 346 346 346 345 344 344 344 344 345 343 345 345 346 345 345 346 347 345 339 336 334 333 332 332 333 334 340 341 340 337 337 337 339 338 336 336 338
343 346 347 347 348 351 353 353 353 353 353 354 354 354 353 353 353 353 353 353 352 352 352 352 351 351 350 349 349 349 349 348 348 348 348 347 347 347 347 346 346 346 345 345 346 346 347 347 347 346 346 344 345 344 344 344 345 345 345 346 346 346 346 346 346 343 336 333 332 330 332 338 333 334 338 340 339 339 337 338 341 337 336 335 337
343 345 347 348 349 353 353 353 354 353 354 353 353 353 353 353 353 353 353 352 352 351 351 351 350 349 348 348 348 348 347 347 346 346 346 346 346 346 346 345 345 345 346 346 346 347 348 348 348 347 346 345 344 344 345 345 345 345 346 345 346 346 345 347 344 337 337 332 332 333 340 342 331 331 339 339 339 338 337 337 337 336 335 335 337
343 345 347 349 353 353 354 354 353 354 354 353 353 353 353 353 353 353 353 352 352 351 351 350 349 348 347 347 346 346 345 345 344 344 344 343 343 344 346 345 345 345 345 344 346 347 348 348 348 347 346 347 346 346 345 346 345 346 346 346 346 346 346 346 340 336 336 335 337 336 336 335 332 337 339 338 338 337 337 337 336 336 335 335 335
343 345 348 350 351 353 353 353 354 354 353 353 353 353 353 353 353 352 352 351 351 350 350 349 349 348 347 346 346 345 344 343 343 343 343 343 342 342 343 343 344 344 345 345 345 346 347 347 348 348 347 346 347 346 346 346 346 346 346 346 346 346 347 345 339 337 335 333 334 333 332 331 332 339 338 338 338 337 336 336 334 334 333 334 334
343 346 348 349 350 355 353 353 353 353 353 353 353 353 353 353 352 352 351 351 350 350 349 349 349 347 346 346 345 344 343 343 343 342 342 342 342 342 342 344 344 344 344 344 344 345 345 346 347 347 347 346 346 347 346 347 346 346 346 346 346 346 346 344 344 337 333 333 333 332 331 333 332 340 339 339 338 337 336 335 334 334 333 333 334
343 346 347 349 350 351 355 353 353 353 353 353 353 353 352 352 351 351 351 350 350 349 349 348 348 347 346 345 344 344 343 342 341 340 341 341 341 342 341 341 342 342 342 343 343 344 345 345 346 347 346 346 347 346 346 346 347 346 346 346 346 346 347 342 342 337 332 334 333 336 332 331 340 339 339 338 337 337 336 334 333 334 332 333 334
345 346 348 348 350 351 352 355 353 353 352 353 352 352 352 351 351 350 350 350 349 348 348 348 347 347 346 345 344 344 344 344 343 342 341 341 341 342 342 341 341 341 341 342 342 342 344 344 346 346 346 347 346 346 346 347 347 347 347 346 347 347 347 347 337 335 331 333 333 334 331 334 340 339 340 338 337 336 335 333 333 335 333 332 332
345 346 347 347 349 350 351 351 352 353 353 353 352 352 351 350 350 350 349 349 349 348 348 347 347 346 345 345 345 344 344 343 344 343 342 341 341 340 340 341 341 341 341 341 340 342 342 344 345 345 346 346 346 346 347 347 347 347 347 347 347 347 347 348 338 334 328 333 334 333 332 334 338 339 340 338 337 336 335 333 334 334 332 331 332
344 345 346 347 347 349 350 350 350 350 350 352 352 351 351 350 350 349 349 349 348 348 348 347 346 346 345 345 344 345 344 344 344 343 342 341 340 340 340 341 341 341 341 341 341 341 342 342 344 344 346 346 346 347 347 347 347 347 347 347 347 347 348 344 334 335 329 337 332 336 335 339 340 339 339 339 336 336 335 334 333 332 332 331 331
343 344 346 346 347 348 349 349 349 349 349 348 348 350 351 350 350 350 349 349 348 348 347 346 346 345 345 345 345 345 345 344 344 344 344 343 342 340 339 340 340 340 339 341 340 342 340 341 344 342 345 344 346 347 347 347 347 347 347 347 347 347 347 338 335 335 334 334 331 332 332 341 341 340 340 337 336 336 336 334 333 333 333 331 331
341 343 343 345 347 347 347 347 348 348 349 348 347 348 350 350 350 349 349 349 348 348 347 347 346 346 345 345 345 343 344 342 345 342 344 343 343 342 341 339 339 340 340 340 340 341 341 342 342 342 342 344 346 347 347 347 347 347 347 347 349 348 334 331 333 332 332 331 334 331 336 342 341 341 339 337 335 336 336 334 334 332 332 332 331
339 339 340 343 345 345 345 345 347 347 348 348 347 347 349 349 349 349 349 349 348 348 347 347 346 346 345 345 345 338 337 338 338 340 344 341 344 342 343 342 339 340 340 340 341 341 342 342 342 343 342 342 344 345 346 347 347 347 348 349 348 340 331 331 332 333 330 333 336 330 339 342 342 341 341 338 337 336 336 334 332 333 333 332 332
335 336 339 342 342 342 343 343 344 345 347 348 348 347 347 348 344 343 343 346 347 348 343 341 349 340 346 342 339 341 339 337 337 346 342 342 343 343 344 344 343 342 340 340 340 341 342 342 342 343 343 342 344 338 340 343 345 347 348 349 345 338 335 332 332 330 333 331 335 333 342 343 343 342 342 339 337 337 336 334 333 334 334 333 333
334 335 337 338 339 340 341 341 342 344 345 346 347 347 345 343 343 343 344 347 346 345 341 344 338 339 341 340 342 339 340 339 340 345 345 345 343 344 343 344 344 345 344 344 343 342 342 342 342 343 343 343 336 333 336 337 337 345 346 342 337 337 336 334 333 331 332 330 333 337 343 344 343 343 342 340 338 338 336 334 334 334 333 333 333
335 336 336 339 338 339 340 340 342 343 344 344 345 345 343 342 341 341 342 341 340 342 339 340 339 339 340 338 340 340 342 339 348 348 350 342 340 345 344 344 345 345 345 345 344 344 344 343 342 341 342 338 332 331 333 335 337 336 336 336 335 334 334 334 334 333 329 333 333 338 344 344 343 343 342 341 340 339 336 335 335 334 333 333 332
337 338 337 338 338 339 339 339 342 342 342 343 343 341 342 341 340 340 339 338 338 337 339 339 337 337 337 340 340 343 340 339 339 340 337 336 336 336 336 336 337 336 343 338 338 339 339 335 333 330 325 327 328 329 331 332 334 335 336 336 335 334 333 334 334 334 331 331 335 340 345 344 343 343 343 342 340 340 338 337 335 335 334 333 332
337 335 337 339 340 342 342 340 341 341 342 342 342 343 343 340 339 339 338 339 340 337 338 339 337 336 338 342 343 337 338 338 337 337 337 337 337 335 336 335 335 337 340 338 336 337 337 335 334 329 325 325 326 327 328 333 331 332 334 335 335 334 333 334 333 332 330 331 334 341 345 344 344 343 344 343 342 340 340 338 336 335 335 334 333
333 333 335 336 338 340 342 341 341 340 340 341 341 342 340 340 340 338 338 337 337 337 337 336 336 339 341 343 336 336 336 336 335 335 336 336 336 336 337 337 336 336 340 338 337 337 336 336 332 328 324 324 325 326 326 327 328 329 332 335 335 335 334 333 332 331 331 331 335 343 345 345 344 344 344 344 343 341 341 339 338 337 336 335 333
332 333 335 336 337 338 341 341 341 338 338 339 340 340 338 338 338 341 340 339 338 337 336 337 340 338 340 341 341 337 335 333 333 334 335 334 335 336 336 338 338 339 341 339 339 338 337 336 333 332 330 330 332 331 330 331 329 329 330 329 330 331 330 331 332 331 330 331 333 342 346 344 344 344 345 345 344 343 342 341 339 339 338 336 335
332 334 335 336 336 338 339 340 340 339 336 337 338 337 336 336 335 335 336 341 336 336 337 339 339 340 341 343 343 335 334 332 332 334 335 334 335 337 337 339 338 339 338 338 338 338 337 335 334 333 332 332 332 332 334 332 331 330 330 330 331 331 330 331 332 331 331 331 333 339 346 345 343 343 345 346 345 344 343 343 342 340 339 337 336
333 334 335 336 337 339 339 340 340 339 336 336 336 335 334 333 334 336 338 343 338 339 340 338 339 340 339 341 340 336 333 332 332 333 333 333 335 335 337 336 336 337 336 338 337 337 335 334 334 333 334 332 331 333 333 332 332 331 331 331 332 332 331 331 331 330 331 332 333 336 345 344 342 342 343 345 346 345 345 344 343 342 341 339 338
333 334 335 336 338 339 339 338 336 339 335 334 333 335 337 337 340 341 341 340 340 339 337 336 336 337 338 340 340 339 335 334 333 332 333 333 334 334 336 336 335 336 336 336 336 336 334 333 332 332 332 332 332 332 333 332 331 331 331 332 332 332 332 333 333 333 332 332 333 333 338 345 343 342 342 341 344 344 345 345 345 343 342 340 339
332 333 335 336 337 337 336 338 339 340 339 338 339 339 339 340 340 340 339 338 338 336 337 337 339 337 338 338 337 337 336 334 334 333 333 332 334 333 334 336 336 336 335 334 336 335 335 334 334 334 333 332 332 332 334 331 330 331 331 332 333 333 332 332 333 333 332 331 332 334 335 337 343 344 343 341 341 342 345 345 343 342 342 341 339
333 335 335 336 335 335 336 337 339 340 339 338 339 339 339 339 339 339 338 338 338 337 337 337 336 336 335 335 335 337 335 333 334 333 335 333 334 333 334 335 335 334 334 335 335 333 334 332 333 333 334 332 331 331 333 330 329 331 331 332 332 333 333 333 333 333 333 332 331 332 333 335 336 340 341 342 341 341 342 344 343 344 342 341 340
333 334 334 333 335 336 337 337 338 338 338 338 339 339 339 338 338 338 339 338 338 337 337 336 335 334 334 335 335 336 336 337 334 334 334 334 333 332 333 335 334 333 333 335 335 332 332 330 330 329 334 330 329 329 329 330 331 331 332 332 331 332 332 332 332 332 333 333 333 332 332 332 334 334 335 341 342 341 340 341 343 343 343 343 341
334 333 332 334 335 335 337 336 338 337 338 337 337 337 338 337 336 336 337 336 336 335 335 335 334 333 333 335 335 337 338 336 336 334 333 332 332 332 333 336 335 333 334 334 333 333 331 330 330 331 328 328 327 330 330 329 329 330 331 332 332 333 332 333 333 332 332 333 332 332 333 332 333 334 335 334 337 340 341 340 342 342 342 342 343
334 333 334 334 333 334 336 335 335 335 335 335 336 336 336 335 335 337 335 334 334 333 333 334 333 335 336 334 337 337 336 335 336 335 333 332 333 333 333 334 334 334 335 334 334 333 333 333 331 329 328 329 329 330 329 329 329 329 330 330 330 331 330 331 331 332 332 332 332 332 332 332 332 332 337 334 333 334 338 339 339 339 340 341 342
334 334 333 333 333 334 335 334 334 334 334 335 335 335 335 334 334 335 334 334 333 334 334 334 334 334 333 333 334 336 334 335 334 334 332 333 335 335 333 333 334 334 333 333 332 332 331 332 330 330 328 326 328 328 328 328 328 329 329 329 330 330 329 330 331 331 333 332 332 332 332 333 334 341 335 334 333 333 335 337 339 339 339 339 341
335 334 333 333 332 332 332 333 333 334 334 334 334 334 334 333 333 333 335 333 333 333 333 334 334 333 332 333 335 336 336 334 335 337 335 335 333 332 332 333 334 333 332 331 330 330 329 329 328 329 330 329 327 326 325 326 328 328 328 328 328 327 328 330 331 333 331 331 331 331 331 332 332 332 332 333 334 334 334 335 338 339 340 338 337
334 333 333 332 331 331 333 334 332 332 332 333 333 333 332 332 331 331 331 332 332 332 333 333 332 333 334 335 335 335 334 332 332 334 334 332 331 330 329 330 332 331 330 328 327 327 327 326 326 326 328 329 326 325 324 325 326 326 326 326 326 326 327 328 329 327 327 328 328 330 329 329 330 329 328 330 332 333 333 333 333 332 333 336 337
333 332 331 331 331 332 332 331 331 332 332 332 332 331 331 330 329 330 330 331 331 332 331 332 332 332 333 331 330 330 330 330 328 329 331 331 329 327 326 328 329 329 328 327 325 324 324 324 324 325 323 325 324 324 323 323 323 320 323 324 324 324 327 328 324 325 325 326 326 326 322 321 321 322 324 324 327 331 332 333 334 332 332 333 335
332 331 331 332 332 332 331 329 331 332 331 330 330 329 328 327 327 327 328 329 331 332 331 330 329 328 327 327 327 327 327 327 327 326 325 328 325 324 324 325 327 325 324 324 325 324 324 324 323 323 322 321 320 320 320 321 318 317 319 320 321 322 326 324 323 324 324 324 324 321 319 318 319 319 321 319 318 321 324 327 329 330 331 331 332
331 331 331 332 332 331 330 331 332 331 330 330 329 328 327 327 327 327 328 329 329 327 325 326 326 326 325 324 324 323 324 325 327 325 323 323 322 322 321 321 322 323 322 322 322 324 321 322 322 320 320 319 317 317 317 318 314 313 313 316 316 320 322 321 321 323 323 323 320 317 315 315 316 317 316 314 314 315 317 322 326 327 327 327 329
331 331 332 331 331 330 331 332 332 330 329 331 329 328 327 328 328 327 329 329 330 327 325 325 324 322 322 322 321 320 320 320 322 323 321 320 320 320 320 319 320 322 318 318 318 318 318 318 317 316 316 318 318 317 315 316 310 313 313 311 309 313 315 316 318 321 321 319 317 314 313 314 312 313 312 311 311 312 315 318 324 323 323 321 320
331 331 332 331 332 332 332 331 330 329 329 331 331 328 329 329 330 330 330 328 325 326 324 322 320 319 319 320 320 319 318 318 319 319 318 318 318 318 318 318 318 319 317 316 316 315 315 315 315 315 314 312 312 311 314 314 313 313 309 310 311 309 306 309 312 315 318 315 313 311 310 311 310 311 310 309 309 311 312 314 318 319 314 314 315
331 331 332 332 331 330 330 329 328 329 329 331 329 330 330 329 331 330 329 327 325 323 321 319 319 319 317 316 316 317 317 316 317 318 319 316 316 316 316 316 316 316 316 315 314 313 313 313 313 313 312 309 308 308 310 313 312 314 312 310 309 309 308 309 309 308 314 313 310 309 309 308 309 308 307 307 309 309 311 311 309 315 308 309 310
331 332 332 331 330 330 330 329 330 330 329 329 329 329 329 328 327 325 323 321 319 319 317 316 315 314 314 315 315 315 316 315 315 316 317 317 315 315 315 315 315 315 315 313 313 313 312 312 312 311 310 310 308 307 306 311 312 312 312 312 313 307 305 306 304 301 309 310 308 308 306 306 308 306 306 306 306 307 310 308 308 309 306 305 306
331 332 331 331 331 330 331 331 330 329 329 328 328 329 327 326 326 324 322 320 319 318 319 318 316 315 315 313 313 314 314 314 314 314 316 316 314 314 314 314 314 314 315 312 311 310 311 312 312 310 309 310 308 305 305 305 307 309 310 309 310 308 306 303 299 301 299 302 305 304 304 305 306 305 304 304 305 304 306 307 306 305 304 304 304
330 331 331 331 330 330 331 330 330 329 327 328 327 328 326 326 325 323 322 320 319 318 318 317 317 317 313 313 312 312 313 313 312 313 314 315 314 312 313 313 313 314 314 311 310 310 310 311 311 310 310 309 307 305 304 305 304 304 308 305 306 307 305 304 303 300 299 296 296 302 302 302 303 303 303 302 303 302 304 304 304 303 303 303 303
330 330 330 330 330 330 329 328 327 327 327 328 328 327 328 326 324 322 321 321 320 319 318 317 314 314 311 311 310 310 311 312 312 311 312 313 315 312 311 311 311 312 314 311 310 310 309 308 308 307 306 307 308 307 304 303 303 302 302 302 302 302 303 302 302 302 299 295 295 296 296 299 299 301 301 301 303 302 303 302 303 303 303 302 301
330 330 330 329 329 328 326 326 326 325 326 327 328 327 326 325 323 322 320 319 319 316 314 312 311 311 309 309 309 308 309 309 310 310 310 311 311 311 310 310 311 312 312 308 309 308 308 308 308 307 306 305 305 305 304 303 303 302 302 301 299 299 299 299 299 298 298 297 293 293 294 294 293 297 299 299 301 300 300 301 300 301 301 300 301
329 329 328 327 327 326 324 322 320 321 323 323 324 323 323 323 322 321 320 318 316 314 311 310 310 310 308 308 308 308 308 307 308 309 309 309 310 312 310 310 310 313 310 308 307 307 307 306 306 306 306 304 303 302 303 303 302 301 301 300 299 298 297 296 295 296 295 293 292 292 293 294 294 293 296 299 300 299 300 300 299 300 300 299 300
Wind_Speed
6 9 7 11 13 13 15 16 16 14 15 16 17 17 17 16 16 17 16 16 15 15 14 14 13 14 13 12 12 13 12 12 12 12 12 12 13 13 13 13 13 13 13 12 13 13 12 11 11 11 11 10 10 12 13 13 13 13 14 14 14 13 13 13 14 14 13 13 14 14 13 13 12 12 12 13 13 13 13 12 10 4 3 7 11
11 8 6 8 12 13 16 16 16 15 15 16 16 17 17 16 16 17 16 15 15 14 14 14 14 13 13 12 12 12 12 11 12 12 12 12 12 12 13 13 12 12 12 12 12 12 11 11 10 10 10 10 10 12 13 12 12 12 12 13 12 13 13 12 13 13 13 13 13 14 14 13 12 12 12 12 12 12 12 12 11 4 3 10 11
11 9 6 8 14 15 15 16 17 16 15 16 17 17 17 17 16 17 16 16 15 14 13 13 13 13 12 12 12 11 12 12 12 12 12 12 11 12 12 12 12 11 12 12 11 11 11 11 10 10 9 9 10 12 11 11 11 11 12 12 11 11 11 12 13 13 14 13 13 13 13 13 12 11 11 11 11 11 12 11 10 7 5 11 10
13 8 7 11 15 12 13 16 16 16 16 16 16 16 16 16 17 16 16 16 15 14 14 14 13 13 12 12 12 12 12 12 12 12 12 11 10 11 11 11 11 12 12 11 10 10 10 10 10 9 9 9 10 10 10 9 10 10 10 10 11 10 10 10 11 12 12 12 12 8 3 3 6 11 10 10 11 11 10 10 10 9 9 11 12
12 9 8 8 9 10 13 16 14 17 16 16 16 17 16 17 17 16 16 15 15 14 14 13 14 13 13 13 13 13 12 12 12 12 11 11 10 11 11 11 11 10 11 10 10 10 10 10 9 9 8 8 9 9 9 9 9 9 9 9 9 9 8 8 9 9 8 9 10 6 2 2 3 9 10 10 10 10 10 10 11 9 10 11 11
11 9 8 7 7 9 13 15 15 17 16 16 16 16 16 16 16 16 16 16 15 14 14 14 14 13 13 13 13 13 12 11 11 11 10 10 9 10 10 10 10 9 10 9 9 10 10 9 9 8 8 7 7 7 8 8 8 8 8 8 8 7 7 6 6 4 3 4 8 3 3 2 2 4 10 8 8 8 9 9 9 10 10 10 11
13 9 8 8 6 8 13 14 16 16 16 16 16 16 16 16 16 16 15 15 15 15 14 14 13 13 13 12 12 12 12 12 11 11 10 9 9 9 10 9 9 9 9 9 8 8 9 8 7 7 7 7 7 7 7 7 8 7 7 7 7 7 6 6 5 5 5 1 3 3 3 3 2 2 8 8 9 8 7 8 8 9 10 9 9
9 8 8 8 7 11 13 15 16 15 16 16 16 16 16 16 15 15 15 15 15 14 14 14 13 13 12 12 12 12 11 11 11 11 9 9 8 8 9 9 8 9 9 8 8 8 8 8 7 6 6 6 6 6 6 6 7 7 7 7 7 7 7 7 7 8 7 1 4 5 4 2 1 3 7 8 9 8 7 7 8 8 9 6 11
10 10 9 8 8 15 13 13 15 16 15 16 16 17 16 15 15 15 15 15 14 14 14 14 13 12 12 11 12 11 11 10 10 10 10 9 9 9 9 9 9 8 7 7 7 8 8 7 6 5 5 4 5 5 6 6 7 7 7 7 7 8 8 8 9 9 5 3 5 4 4 2 2 3 7 9 9 8 8 7 7 8 7 7 10
10 9 9 7 8 16 13 13 13 15 16 17 16 16 16 15 15 15 15 15 15 14 14 13 13 12 11 11 11 11 10 9 9 8 8 8 8 8 7 6 7 6 6 6 7 8 8 7 6 5 4 4 4 4 5 6 6 7 7 7 8 8 9 8 9 6 4 6 6 5 4 5 3 3 5 8 8 7 7 7 6 6 5 7 9
10 9 8 8 10 14 13 13 13 15 16 16 16 17 16 15 15 15 15 15 14 14 13 13 12 11 10 11 11 10 10 9 8 7 7 7 7 7 6 6 6 6 6 6 7 8 9 8 7 5 4 3 3 4 5 6 6 7 7 8 8 8 9 10 7 3 3 4 5 4 6 10 3 3 8 7 7 8 7 6 7 7 6 7 8
10 9 7 7 14 13 13 13 14 13 15 16 17 16 16 16 16 14 14 14 13 13 13 12 11 10 10 10 10 10 9 8 8 7 6 6 6 5 6 7 6 6 6 6 7 8 8 8 7 6 4 3 4 4 6 6 7 7 8 8 9 9 10 10 5 3 2 3 3 3 4 4 4 5 9 8 7 7 7 7 6 7 6 5 6
11 9 8 7 8 12 12 13 14 14 15 16 16 16 16 15 14 14 13 12 13 12 12 12 11 10 10 10 10 10 9 8 8 7 7 6 6 5 4 6 6 5 5 6 7 8 8 7 6 6 5 4 4 5 6 6 6 7 8 8 8 8 9 9 3 4 4 3 3 3 4 3 3 8 9 9 8 7 6 6 5 5 4 5 6
12 10 8 8 7 14 13 12 12 13 14 14 14 14 14 14 14 13 12 11 12 12 11 12 11 11 10 10 10 9 9 8 7 7 7 6 6 5 5 5 5 5 5 5 6 7 7 7 6 5 5 5 5 5 6 6 6 6 7 7 7 6 7 5 4 2 6 5 3 3 4 3 3 9 9 9 7 6 6 5 5 6 4 5 5
14 11 10 8 8 9 15 12 11 12 11 11 12 13 14 13 13 12 11 12 12 12 12 11 11 11 10 9 9 9 9 8 7 6 6 6 5 5 5 5 4 4 4 4 5 6 6 6 6 4 3 3 3 4 5 6 6 6 6 6 6 6 7 2 2 2 5 5 4 3 3 3 7 9 9 8 7 7 7 5 3 5 4 4 4
13 13 10 8 8 8 8 13 13 12 11 12 12 14 14 13 12 12 12 12 11 11 11 11 11 10 9 9 9 9 9 7 6 6 6 5 5 5 5 4 3 2 2 3 3 4 5 5 5 4 3 3 3 4 5 6 7 7 7 7 7 8 7 5 2 1 4 4 3 3 4 3 10 9 9 9 8 7 6 5 3 5 4 4 3
11 11 10 8 8 7 7 7 10 14 11 12 13 13 13 13 12 12 11 11 12 11 11 11 11 9 9 9 8 8 8 7 6 6 6 6 5 4 4 3 3 2 2 1 2 3 4 5 5 5 4 4 4 5 6 7 8 8 8 8 8 8 6 5 2 1 4 4 4 3 4 4 9 9 10 9 8 6 6 4 4 5 3 2 4
10 9 9 8 7 6 6 7 8 7 7 10 13 14 13 13 11 11 11 11 11 11 11 10 10 9 8 7 7 7 7 6 5 5 5 5 5 4 3 2 2 1 0 1 2 3 4 4 5 5 5 4 5 5 6 7 8 9 8 8 8 8 7 5 1 2 3 4 3 3 3 5 9 10 10 9 7 7 7 5 4 4 4 2 3
9 8 8 8 7 6 6 5 6 5 6 5 4 9 13 12 11 10 10 10 10 10 10 9 9 7 6 6 6 6 6 5 5 4 3 4 5 4 3 2 1 0 1 2 3 3 4 4 4 5 5 5 5 6 7 8 8 8 9 8 8 8 7 3 0 3 3 3 4 3 4 8 9 11 10 9 9 8 7 6 5 4 3 3 4
8 8 7 6 6 6 5 5 5 5 5 5 5 5 10 12 10 9 9 8 9 9 9 8 8 7 6 5 5 3 3 3 5 3 3 2 2 3 3 1 1 1 2 3 3 5 5 5 4 4 4 4 5 6 8 9 10 10 10 10 9 10 3 2 3 1 3 5 4 5 6 11 11 11 11 11 9 9 8 7 6 5 5 4 3
6 6 5 5 5 5 5 4 5 7 6 5 4 5 8 11 9 9 9 8 7 8 8 8 7 6 5 5 3 1 0 0 0 1 3 0 2 1 1 2 1 2 4 5 5 6 7 7 6 5 5 5 5 6 8 9 10 11 11 10 11 7 1 1 2 1 2 2 4 5 9 12 12 12 11 11 10 10 9 8 7 7 7 5 5
6 6 5 5 5 3 3 3 4 5 6 4 4 4 5 7 4 4 3 4 5 6 4 3 6 1 5 3 1 1 1 1 1 2 1 1 1 1 2 3 2 2 2 4 7 7 8 8 8 8 7 7 7 4 4 7 10 10 10 12 8 6 4 1 2 0 3 3 3 5 11 12 12 12 12 11 11 10 10 9 8 8 7 7 5
7 6 6 5 4 4 4 3 4 5 5 4 4 4 4 3 3 3 3 4 4 3 2 3 2 1 1 1 1 1 1 2 1 3 2 3 2 2 1 3 5 5 5 5 5 6 7 9 9 9 8 8 4 5 5 5 6 8 8 6 5 6 6 2 1 3 4 4 4 8 11 11 12 12 11 11 12 12 11 9 9 8 8 7 6
9 8 8 6 6 6 6 5 5 5 5 4 4 4 4 3 4 3 3 3 2 2 2 1 2 2 2 2 1 2 2 2 5 5 2 1 1 2 2 2 3 5 7 5 7 7 8 7 7 8 6 3 3 3 4 5 6 6 5 5 5 6 5 5 2 4 4 5 4 10 11 12 12 11 11 11 12 12 12 11 10 10 9 8 7
6 7 6 6 6 7 6 6 6 6 5 5 4 4 4 4 4 4 3 3 3 2 3 3 2 3 3 3 3 1 1 2 1 3 2 0 0 0 1 1 1 2 4 3 4 5 5 5 4 3 3 3 3 4 3 5 5 5 5 5 5 6 6 5 4 5 4 5 4 10 12 11 10 11 12 11 12 12 12 11 10 10 10 9 8
8 8 2 4 6 8 7 7 7 6 6 6 5 5 6 5 4 4 4 3 4 3 4 4 2 2 3 3 2 2 2 2 2 2 1 0 0 2 2 1 1 2 2 4 4 4 5 4 5 5 4 2 3 4 3 4 5 6 6 5 5 5 5 6 5 5 3 5 5 11 11 9 10 11 12 12 12 12 13 12 11 11 11 10 10
10 10 10 10 5 4 6 7 6 6 6 5 5 5 6 6 6 5 5 5 4 3 5 2 2 3 4 4 4 4 3 3 2 2 2 2 2 2 2 1 2 2 2 2 3 4 4 5 5 5 4 4 4 3 3 4 5 6 6 5 4 5 5 6 5 4 4 5 5 10 9 10 10 11 12 12 12 12 13 13 12 11 11 11 11
9 8 8 6 5 7 5 7 6 5 6 7 7 6 5 5 5 5 5 5 5 5 3 3 4 4 3 3 3 4 4 2 1 2 2 1 1 2 1 2 1 3 3 2 4 4 4 4 4 5 4 3 3 3 3 3 4 2 2 3 3 4 4 5 4 1 2 4 3 7 9 10 11 12 12 12 12 12 13 13 13 12 12 12 12
12 9 5 7 10 9 7 6 6 5 6 7 7 6 5 4 3 3 5 4 4 3 3 3 2 2 2 3 4 3 2 2 2 1 0 1 1 1 1 1 1 3 2 3 2 3 2 1 0 1 2 3 2 3 3 3 2 2 2 3 2 3 3 5 5 3 1 2 3 5 10 11 12 12 11 12 12 13 13 14 14 14 13 13 13
11 10 10 10 10 9 9 9 9 7 7 6 6 5 4 4 3 3 2 3 4 4 4 3 3 3 3 4 4 2 2 2 2 1 1 1 0 1 1 1 1 3 2 4 4 1 1 0 0 1 1 2 2 2 3 4 5 4 3 3 3 3 4 3 5 5 2 2 3 4 9 11 11 11 11 11 12 13 13 14 14 14 13 13 13
11 11 11 8 7 8 9 7 5 4 6 6 5 4 4 4 4 4 4 5 5 5 4 3 3 3 3 3 3 3 1 1 2 2 1 1 1 2 3 3 3 3 2 1 1 2 2 2 1 2 2 4 3 3 3 4 4 5 4 5 5 5 5 5 5 4 3 4 3 3 4 9 11 11 11 11 12 13 14 14 14 14 14 13 13
12 12 10 8 9 7 7 5 5 6 7 6 6 6 5 5 4 5 5 4 5 5 4 4 4 3 2 3 2 2 2 1 1 1 2 1 2 4 3 3 2 0 1 1 3 2 2 2 2 2 2 3 4 4 4 5 5 5 4 4 4 5 5 5 5 5 5 4 4 4 4 5 9 11 10 12 12 12 13 14 14 14 14 13 13
10 13 12 12 11 9 8 6 8 8 8 8 7 6 5 4 5 5 4 5 5 5 4 4 4 2 1 2 2 0 0 1 1 1 2 2 3 4 3 2 2 1 1 2 3 3 3 4 4 3 4 4 5 6 5 3 3 5 4 4 4 4 4 4 5 5 5 5 5 4 4 5 4 8 11 12 12 12 13 14 14 15 15 15 14
11 9 10 10 7 6 6 7 9 10 9 7 7 6 5 5 5 5 5 5 5 5 5 4 3 1 1 2 2 2 2 2 2 1 1 2 3 2 1 1 1 1 2 3 4 4 3 3 3 3 4 4 5 4 5 6 6 5 5 4 3 4 3 4 4 5 5 5 5 4 4 4 5 5 6 9 12 13 14 14 15 15 15 16 16
10 9 10 11 10 8 7 7 9 9 9 7 7 7 5 5 5 5 5 5 5 5 5 4 3 1 0 1 1 3 3 2 1 1 2 2 2 2 1 0 2 2 4 4 5 3 3 2 2 4 3 3 3 3 4 5 5 6 6 5 5 5 4 5 5 4 5 5 4 4 5 4 5 5 5 6 6 12 14 14 14 14 15 15 17
12 12 11 11 10 8 8 10 8 10 8 7 6 7 6 5 5 5 5 4 5 5 5 4 2 1 1 2 1 1 1 2 1 1 2 2 1 2 2 2 3 4 4 4 5 5 3 4 3 2 4 4 4 5 5 5 5 5 5 5 5 5 5 5 5 5 5 5 5 5 5 5 4 5 6 6 6 6 11 13 13 13 15 16 16
13 14 13 11 10 8 9 10 9 10 9 7 7 6 6 6 5 5 5 4 5 5 4 3 3 4 2 1 0 0 2 2 2 1 1 2 2 4 2 2 2 4 5 6 6 5 4 4 5 3 2 3 4 5 6 6 6 5 5 4 4 4 5 5 5 5 5 5 5 6 6 6 4 5 5 6 5 6 8 12 12 13 14 14 16
10 10 11 11 10 8 7 8 7 8 8 8 7 7 6 6 5 5 5 6 5 4 4 4 4 3 2 2 1 3 3 3 2 2 3 4 4 4 3 4 5 6 7 7 6 5 5 5 5 5 5 5 6 6 6 6 5 5 5 5 5 4 4 5 5 4 5 6 6 7 7 6 6 6 6 6 6 6 6 8 10 12 12 11 12
8 10 9 9 8 7 7 7 8 7 7 7 7 7 7 6 5 6 6 6 5 5 4 5 4 3 4 4 4 6 6 6 5 4 5 6 7 6 7 7 7 7 7 7 6 6 6 5 5 6 5 6 6 5 5 5 5 5 5 5 4 4 3 2 4 6 7 6 7 7 8 9 8 8 10 9 7 6 6 6 7 4 6 11 11
8 8 9 8 9 8 6 6 5 6 7 7 7 7 6 6 8 6 7 6 6 6 6 6 5 6 6 6 7 7 7 7 8 8 8 7 7 7 8 8 8 7 6 6 6 6 6 6 6 5 6 5 7 7 7 5 5 3 5 6 3 3 4 5 7 7 7 8 7 7 9 8 10 9 12 11 12 11 8 7 6 6 6 10 12
8 9 8 8 8 8 8 7 4 5 7 7 6 7 7 6 5 6 8 5 6 6 6 6 7 6 6 7 7 6 6 8 8 8 7 7 6 6 7 7 6 6 6 5 5 6 6 5 4 4 6 6 7 8 8 5 6 7 4 4 5 3 3 5 8 8 8 6 7 9 9 10 10 11 10 11 12 12 11 11 10 9 8 7 10
7 8 9 8 7 7 7 6 5 4 5 5 6 5 3 5 7 7 8 7 7 7 7 6 6 6 7 7 6 6 7 7 6 6 6 5 6 6 7 6 5 5 5 5 6 6 7 7 5 5 4 5 5 8 8 6 5 4 5 7 6 5 1 3 9 9 7 7 8 10 10 10 12 10 10 11 11 11 10 10 11 12 12 13 12
7 7 8 9 7 6 6 6 5 4 4 4 5 5 3 4 6 5 8 7 5 6 6 6 7 8 7 7 6 6 7 7 6 5 5 5 6 7 6 5 5 4 6 7 6 7 6 7 6 4 4 4 4 6 8 7 3 5 1 1 4 6 6 6 3 8 7 8 9 11 10 10 14 11 10 9 10 10 9 8 10 11 12 13 12
6 7 7 8 6 6 5 5 4 3 4 4 4 4 5 6 7 7 6 7 7 7 7 6 7 8 8 6 7 7 7 6 5 4 5 6 7 6 5 5 5 5 5 6 7 7 7 7 6 7 3 5 5 6 7 8 7 6 4 1 2 1 3 4 8 5 3 9 11 10 11 10 12 12 10 11 10 9 9 8 10 10 11 11 11
5 6 6 6 5 6 5 5 5 4 4 4 5 5 7 7 7 8 9 9 6 6 6 6 5 7 7 7 6 6 6 6 5 5 6 7 6 5 5 5 6 5 6 7 7 7 6 6 7 7 7 3 5 4 7 8 9 7 3 3 3 3 3 5 7 2 4 6 9 10 12 11 11 11 10 10 10 9 9 10 9 10 12 11 11
6 5 5 7 7 6 6 6 5 5 5 5 4 6 6 8 9 9 8 6 6 5 6 6 5 6 7 5 6 6 5 4 4 6 6 6 6 5 5 6 6 6 6 6 6 7 8 8 6 6 7 6 4 7 6 7 7 9 9 7 5 3 4 5 5 5 3 3 7 9 11 10 9 11 10 10 11 10 9 10 10 11 12 11 11
6 6 7 7 7 6 6 6 5 6 5 5 5 6 6 5 6 6 7 7 8 5 4 4 6 5 6 7 6 5 4 5 5 6 6 6 6 6 5 6 6 6 6 7 8 7 6 6 6 7 6 6 6 8 7 5 5 9 7 7 8 7 6 6 4 5 5 4 6 9 9 10 9 10 11 11 10 10 8 10 10 11 11 11 11
7 8 7 7 7 7 7 7 5 5 4 5 5 5 6 6 7 7 7 7 7 7 6 5 5 6 7 6 6 6 6 6 6 7 7 6 6 6 6 6 7 7 7 7 7 5 6 7 7 7 7 6 6 7 7 7 7 5 6 8 8 8 9 9 7 3 2 8 4 4 6 9 7 7 9 11 10 10 9 10 11 11 10 12 11
8 8 7 7 7 6 6 6 6 5 5 4 5 4 4 6 7 7 7 6 7 6 5 5 6 6 8 6 7 6 6 7 7 7 7 6 6 6 6 7 8 7 6 6 6 7 7 7 7 8 7 8 7 6 8 8 7 7 6 8 8 8 8 8 9 7 6 5 7 9 11 5 5 5 8 10 8 9 9 10 11 11 10 11 11
8 9 8 7 6 6 6 6 5 5 4 4 4 4 5 6 7 7 9 7 6 6 5 6 6 6 8 7 6 6 6 7 7 7 7 6 6 7 7 8 7 7 6 6 6 7 6 6 6 6 8 9 8 8 9 7 7 7 8 7 8 6 7 7 7 8 4 5 5 10 10 13 11 8 7 10 8 8 9 8 10 9 10 10 10
9 9 8 7 6 6 6 6 5 5 4 4 4 5 4 5 7 7 9 9 7 7 7 6 6 7 8 7 6 6 6 6 6 6 6 6 7 7 7 7 6 6 6 6 6 6 6 6 7 8 10 10 8 9 9 8 8 9 9 8 8 8 7 7 6 6 5 4 7 8 9 8 8 7 6 10 7 8 8 7 9 8 10 11 10
Wind_Direction
173 150 152 158 154 149 144 139 137 133 127 122 118 115 113 110 107 104 103 101 101 99 97 94 92 92 92 91 89 90 90 93 93 93 93 95 95 95 95 92 87 85 83 80 78 73 69 69 73 77 81 86 89 89 92 90 92 90 85 89 90 91 93 96 98 95 90 91 87 81 81 82 81 84 86 84 83 82 80 75 60 44 49 70 72
157 150 150 154 154 148 145 140 136 134 128 124 120 117 114 112 108 106 105 103 101 100 98 95 94 92 94 92 92 91 90 91 95 96 97 99 100 100 95 93 95 95 89 82 76 75 76 74 74 77 79 83 92 98 99 90 86 86 86 86 87 90 94 96 99 97 93 88 85 85 79 75 78 80 82 84 85 85 81 77 73 57 55 71 71
137 143 149 154 152 148 145 140 137 134 130 125 121 119 117 113 110 109 109 107 103 100 99 98 96 94 93 96 96 94 93 95 97 99 101 101 103 101 98 99 95 92 86 78 73 74 74 74 74 77 83 90 95 99 97 92 84 84 80 79 80 83 94 100 98 96 92 87 87 83 81 83 80 78 79 79 81 84 83 83 80 77 80 77 72
134 142 147 152 149 145 144 141 137 134 130 126 123 121 117 114 114 112 108 107 105 104 102 99 96 97 94 96 94 93 94 95 98 101 101 102 104 105 106 104 100 89 84 81 76 75 78 79 74 78 83 86 91 92 89 81 75 67 73 78 81 85 86 90 100 100 94 89 84 71 52 53 75 82 80 79 78 76 79 94 86 80 74 68 67
132 139 147 146 144 143 145 141 137 134 130 128 125 122 117 117 113 111 110 109 108 106 104 102 100 98 100 96 94 92 94 95 97 100 102 100 99 95 89 85 83 88 84 79 77 76 76 75 79 78 78 87 86 82 75 75 73 67 66 67 64 68 62 75 105 102 99 75 94 88 70 68 83 85 88 85 78 77 79 86 82 77 66 67 69
137 140 138 135 141 146 143 141 137 134 132 130 127 122 119 117 114 113 113 111 110 109 106 102 101 101 100 98 97 97 93 92 96 98 97 97 98 104 103 99 96 86 82 79 73 71 70 69 70 77 79 82 79 74 70 70 69 67 59 60 60 56 52 36 33 7 3 48 109 105 93 76 82 95 97 90 83 76 75 84 91 81 69 62 67
133 133 133 134 140 145 143 142 137 134 133 130 127 123 120 117 116 115 113 114 111 110 106 103 102 102 102 102 100 99 100 100 98 98 98 101 101 98 96 94 90 84 78 73 71 70 69 68 69 73 73 75 73 71 64 60 62 57 55 51 45 41 38 27 6 349 317 308 136 133 112 95 80 70 90 86 90 89 83 75 68 71 72 68 70
125 128 133 136 139 144 143 141 137 136 135 131 127 124 120 118 117 116 115 113 112 110 109 106 104 101 100 102 102 101 101 101 102 102 104 107 106 102 99 92 82 74 69 61 55 57 62 64 61 59 65 67 66 62 55 54 50 46 42 40 36 31 25 14 358 347 331 197 135 121 119 111 98 75 98 101 93 83 84 78 72 71 73 71 69
130 133 133 135 141 143 142 139 139 138 135 132 128 124 121 120 119 117 116 114 114 114 112 108 105 104 102 100 102 100 99 99 99 100 92 81 80 79 80 79 77 74 71 65 58 54 52 54 59 62 63 63 61 54 50 45 41 38 34 33 28 23 17 7 2 359 345 95 124 120 118 115 89 79 94 97 96 91 83 70 63 71 64 50 75
130 128 134 136 143 142 143 142 139 138 137 132 127 124 122 121 120 118 118 118 117 114 111 110 107 104 105 104 101 103 103 102 101 100 100 93 92 94 96 91 80 78 74 63 56 53 54 52 54 58 52 49 38 38 40 41 29 29 25 24 19 17 11 5 11 9 27 96 118 122 131 127 105 103 102 106 106 93 82 91 108 98 77 57 60
126 129 131 136 139 143 144 142 140 140 136 131 128 124 123 124 124 123 121 118 116 115 112 108 106 106 105 105 103 104 106 105 107 109 110 100 91 83 68 85 87 72 63 52 50 49 49 50 48 49 51 35 31 29 31 29 23 21 15 15 11 12 4 7 17 11 29 107 120 138 134 125 121 123 120 115 109 102 99 93 84 79 77 59 70
124 127 129 135 140 138 139 139 138 137 134 131 129 126 126 126 124 121 119 117 117 114 111 109 109 107 106 104 105 105 105 106 105 105 102 113 112 103 79 75 77 69 58 52 47 46 49 48 46 47 44 28 21 22 22 21 15 11 8 7 4 6 5 11 9 4 49 121 118 119 122 134 147 133 122 120 115 113 107 96 85 74 65 64 68
128 130 133 134 134 138 136 136 137 136 133 132 130 128 127 123 122 120 115 117 117 116 118 117 112 110 108 108 109 108 107 107 108 109 111 106 104 105 95 84 78 72 62 52 45 46 48 50 50 44 38 28 16 14 14 5 6 4 3 0 357 360 5 15 1 0 99 108 116 128 143 160 149 132 125 126 120 115 107 97 102 109 91 61 64
132 132 130 130 141 138 132 133 134 134 133 133 130 128 127 123 119 115 118 118 118 117 118 119 118 118 116 115 114 112 110 111 112 112 111 111 109 103 89 83 79 69 57 49 47 47 48 47 50 56 46 23 11 3 359 358 355 352 353 348 341 352 15 20 2 359 131 130 139 172 161 164 155 137 135 129 123 115 112 120 121 93 74 71 70
132 132 131 135 137 134 135 132 130 130 129 126 126 126 122 115 115 119 121 120 119 122 123 122 121 120 123 124 122 121 120 118 117 113 113 111 109 104 96 96 83 70 55 42 46 45 46 45 45 45 41 28 10 347 344 344 336 338 339 337 331 344 10 30 5 10 127 138 162 180 177 165 152 143 140 133 132 129 126 130 132 110 118 81 72
126 129 129 128 131 137 133 134 130 126 124 124 127 123 118 117 120 123 121 121 124 125 125 126 129 129 131 135 132 125 123 121 117 114 111 114 112 113 111 104 104 84 66 55 46 41 40 39 35 35 32 10 352 333 334 326 329 327 331 328 329 337 1 20 9 14 141 151 162 196 185 175 156 153 144 140 139 144 138 136 143 116 107 106 135
120 121 122 125 126 125 130 123 128 129 122 125 128 120 117 119 122 123 125 126 129 129 131 133 132 137 146 146 136 128 125 126 121 116 113 110 110 111 118 118 115 119 92 72 51 34 31 27 26 21 19 360 338 329 322 324 324 325 323 324 324 323 349 34 342 1 155 162 173 191 209 179 160 154 150 147 145 145 141 134 119 125 117 149 85
114 115 118 117 115 117 121 127 126 122 128 125 127 124 121 120 124 128 131 132 134 134 135 138 141 151 148 140 133 131 129 128 129 124 115 115 118 116 118 128 136 126 101 41 27 24 17 11 13 16 10 357 332 318 316 314 315 313 311 309 310 316 343 61 256 277 183 179 170 190 217 190 165 158 152 150 153 151 150 146 139 141 159 131 115
107 106 108 113 112 115 116 112 118 120 119 122 127 129 123 125 128 133 136 137 137 138 139 141 147 144 146 142 139 135 136 138 134 131 131 129 123 119 123 139 138 166 352 346 346 350 355 355 1 360 355 348 335 319 308 306 305 306 305 307 310 313 357 22 278 289 172 172 175 190 212 192 173 162 158 157 159 161 160 168 165 160 125 147 167
101 102 100 93 102 106 108 112 113 120 122 129 131 129 131 133 136 138 142 141 140 140 141 142 143 146 149 148 144 140 146 147 148 144 145 131 122 135 123 105 15 359 331 331 325 331 325 329 338 348 343 339 331 318 310 311 312 308 307 309 310 318 41 343 329 357 155 177 177 186 212 190 179 171 164 160 165 168 167 163 170 168 175 158 172
95 84 86 93 95 103 109 111 117 132 133 131 129 129 141 141 145 148 147 147 146 147 145 146 147 156 150 152 128 70 67 335 82 156 158 162 290 331 92 115 38 348 335 327 325 322 317 313 316 325 331 323 319 315 311 308 307 309 310 312 318 318 81 327 318 72 164 198 191 203 206 188 185 179 171 168 171 174 174 177 181 182 182 186 184
109 95 81 97 107 106 114 120 127 130 138 137 135 141 146 144 140 144 150 150 154 153 143 148 157 153 161 145 123 188 219 253 285 220 169 211 232 234 337 350 356 351 344 319 318 318 315 313 315 318 314 314 309 319 311 304 300 299 302 305 315 314 329 20 339 11 191 206 218 226 205 195 192 187 180 175 175 174 173 179 187 188 197 193 184
123 119 115 121 127 128 145 149 147 145 144 144 148 148 138 134 138 155 157 160 177 155 150 165 99 139 91 157 172 250 246 239 223 257 191 190 192 205 192 322 334 332 330 319 306 304 305 304 308 310 305 297 312 318 313 302 297 299 307 313 308 305 307 329 256 252 214 212 215 227 207 201 201 193 185 182 180 175 177 185 189 195 192 200 188
133 135 137 141 149 159 167 166 163 160 151 153 146 140 134 134 162 164 172 158 194 133 164 205 163 167 179 179 229 239 249 250 255 271 228 135 211 190 211 271 296 319 316 325 324 318 310 302 291 289 301 307 317 312 312 304 304 307 304 303 298 287 286 288 244 250 223 217 212 230 210 205 207 200 193 190 188 183 184 189 198 199 198 193 197
96 108 123 149 169 171 169 172 172 166 152 151 151 148 144 151 182 183 173 181 184 167 179 222 192 168 194 188 214 191 106 118 104 80 73 33 353 315 305 277 283 300 297 303 305 302 311 305 305 298 264 269 282 275 273 291 292 292 289 286 287 283 284 286 281 263 234 219 213 221 213 210 210 208 202 199 197 196 191 194 203 205 199 196 202
109 104 112 196 200 178 173 177 176 167 161 158 156 165 160 179 188 194 185 201 193 196 199 214 213 177 166 156 163 142 109 109 91 88 61 77 11 323 294 268 286 268 276 272 276 281 288 285 288 293 297 279 256 252 252 254 268 272 271 268 272 287 292 300 296 292 249 209 219 218 215 216 217 217 212 207 202 204 198 199 204 205 202 198 199
140 144 157 176 191 179 181 173 173 166 165 155 163 175 183 188 185 189 185 201 200 206 224 175 159 140 152 173 152 107 98 85 63 50 48 20 359 330 305 281 269 272 243 242 265 262 271 284 285 283 290 291 285 275 258 250 249 261 262 254 251 260 268 273 291 265 221 216 223 218 211 217 222 226 223 217 211 210 202 203 207 208 209 202 204
127 145 177 155 144 190 189 171 179 176 174 167 174 186 186 188 194 193 198 198 186 210 206 157 151 168 157 149 110 104 114 101 78 42 28 35 334 273 281 313 334 296 294 283 284 289 282 274 285 294 291 296 323 316 310 305 295 256 278 274 266 260 263 252 247 237 226 211 227 218 205 217 223 229 230 227 225 219 213 211 212 213 214 210 211
146 148 165 166 181 183 185 190 199 181 179 174 180 189 183 184 195 198 206 199 186 189 136 121 157 154 139 123 102 108 106 121 101 78 54 41 303 347 307 313 300 284 308 306 304 299 318 341 289 297 328 321 305 310 329 324 310 325 318 307 294 291 300 322 333 323 323 217 213 223 210 216 225 231 235 235 235 232 226 222 219 218 219 216 217
150 150 167 187 182 176 184 194 204 188 172 169 183 186 167 163 174 172 150 102 100 111 118 124 123 108 85 90 107 117 145 128 134 146 120 109 349 354 331 38 11 340 8 15 2 33 49 332 308 303 304 306 314 321 346 337 340 340 356 354 344 333 323 319 318 311 269 237 228 234 225 221 229 234 237 240 238 240 238 235 231 223 224 224 218
150 156 175 182 170 181 190 195 212 168 151 164 167 153 134 148 139 130 116 120 121 109 100 101 79 71 68 71 118 144 140 157 151 155 145 146 121 82 37 24 32 9 11 62 120 132 131 88 25 0 1 359 343 328 353 342 337 341 349 347 331 343 340 334 329 316 283 266 245 241 248 240 236 239 239 243 245 247 245 243 241 233 230 232 226
156 167 170 167 176 176 163 162 152 132 134 138 133 129 132 138 139 113 97 103 103 95 90 79 77 65 83 124 120 112 133 176 146 134 115 94 55 49 28 45 42 28 116 93 80 64 52 31 29 17 0 5 345 356 351 357 339 333 334 334 329 333 327 327 319 315 307 284 249 239 244 251 250 244 243 245 247 248 249 249 248 245 244 240 247
167 168 169 174 172 153 143 153 125 116 120 127 126 125 130 128 110 97 99 99 100 103 97 86 82 79 94 60 60 33 28 359 357 38 54 64 63 59 34 24 350 324 30 69 73 56 43 23 16 11 11 10 6 350 346 348 336 329 328 321 329 317 312 313 302 304 301 297 282 255 250 262 261 258 253 251 252 248 248 250 249 249 249 248 238
163 169 166 162 146 140 142 135 121 117 120 122 123 121 120 112 105 104 107 104 100 102 94 88 93 128 78 88 102 95 51 20 337 313 35 64 69 58 46 337 299 4 34 50 56 53 50 33 12 27 12 13 0 338 343 342 332 324 325 314 316 301 304 306 299 296 295 294 281 276 256 247 253 254 258 261 259 257 250 247 248 249 251 251 246
158 162 160 148 150 150 144 125 124 120 119 120 121 119 120 114 106 104 107 111 111 108 100 99 124 173 227 102 71 103 112 107 26 340 62 63 64 65 24 332 6 27 43 49 62 44 43 24 10 19 7 2 349 334 343 329 325 323 314 318 312 316 321 313 308 303 305 303 304 288 276 255 248 254 258 263 260 261 257 251 248 247 249 251 251
167 155 141 150 146 148 135 124 124 120 118 119 116 116 115 108 108 109 104 103 104 94 96 109 119 82 51 20 2 80 125 112 139 174 125 152 131 63 8 359 32 61 70 56 50 34 13 12 2 48 13 347 356 347 350 335 324 310 308 310 307 315 312 309 309 310 308 311 306 301 290 279 256 254 260 261 266 267 267 261 256 250 250 249 249
159 147 149 144 137 135 131 124 126 123 120 114 112 109 109 105 103 104 101 93 86 86 81 91 84 78 73 95 159 72 64 83 75 40 40 49 60 75 68 67 64 69 64 50 41 23 25 11 1 2 36 350 7 357 349 341 329 317 309 312 313 317 317 317 319 319 323 325 321 316 309 303 293 270 269 265 266 270 276 276 270 265 257 251 252
144 133 136 137 133 134 127 122 120 120 123 122 117 112 105 101 98 98 96 84 77 72 74 76 74 64 51 54 39 59 60 62 92 140 138 118 98 90 71 49 50 53 52 45 34 20 23 30 12 5 20 37 29 13 351 337 324 320 319 315 321 325 328 344 333 343 357 349 348 345 335 331 335 327 304 290 284 284 288 293 293 289 287 285 280
120 125 126 123 120 120 115 116 119 121 119 116 112 104 103 99 95 95 85 81 75 68 72 70 57 46 46 37 33 38 40 43 46 55 67 59 54 47 46 35 42 46 49 44 30 21 23 20 30 9 19 44 32 11 344 321 328 320 315 313 323 335 341 3 27 29 16 11 9 8 19 16 11 7 4 351 321 308 315 313 320 332 314 314 293
106 110 118 119 118 110 109 106 119 127 121 113 116 112 113 116 111 98 85 84 82 81 62 64 58 56 46 44 41 37 35 35 33 33 39 43 42 37 42 39 40 43 44 43 33 30 23 17 18 21 15 25 27 9 353 344 330 324 320 326 334 349 53 71 46 34 22 20 17 26 26 14 18 14 16 15 15 6 350 333 329 331 321 303 309
107 118 120 121 122 126 129 132 140 135 132 131 129 133 127 110 97 107 110 105 101 90 77 71 69 67 62 56 50 41 38 42 39 38 38 41 41 38 46 40 40 48 50 41 42 42 33 32 16 28 30 32 23 7 358 336 11 348 332 334 344 357 71 68 52 32 25 21 28 32 22 19 18 19 17 16 16 12 11 10 8 359 345 337 336
124 125 123 124 124 125 130 134 137 138 136 132 130 122 116 134 132 130 119 110 108 102 97 77 76 69 62 58 56 50 43 42 40 40 40 36 41 41 43 40 40 49 58 49 50 46 39 35 21 22 23 46 41 9 2 4 27 10 324 331 340 337 29 71 51 28 22 29 37 34 23 22 23 19 19 16 12 9 8 17 26 27 26 24 18
124 118 120 121 122 121 128 134 135 133 122 116 118 125 110 113 119 125 122 113 86 100 97 93 88 82 71 66 62 53 50 44 39 44 47 42 46 50 48 48 46 48 59 52 50 48 39 39 33 36 1 27 45 21 15 31 9 314 248 41 353 359 334 5 29 31 18 39 41 35 25 23 25 18 18 16 11 4 5 10 28 31 29 27 22
111 114 121 123 121 122 128 123 117 104 109 108 103 99 107 102 98 113 96 100 119 106 96 89 84 80 71 67 59 59 55 51 43 47 54 51 53 57 55 53 50 49 68 67 53 50 41 36 33 33 36 43 21 16 17 15 28 359 15 24 269 89 334 18 348 329 15 50 42 36 28 20 24 16 17 16 6 2 1 14 20 38 29 27 23
124 127 130 129 123 125 118 110 106 107 98 99 102 114 107 98 102 96 102 103 91 96 97 81 81 88 85 66 63 59 57 56 48 51 57 57 56 56 60 58 60 53 63 65 59 52 50 46 42 48 40 62 43 22 14 18 27 20 36 14 356 17 12 321 325 277 10 47 39 40 27 18 26 16 14 10 3 3 4 14 15 37 24 22 19
133 130 121 115 118 116 109 106 109 98 100 102 114 120 127 132 130 130 125 113 108 103 107 120 112 100 98 98 74 66 68 66 59 59 60 61 58 54 56 62 63 61 61 66 61 56 48 49 42 56 52 38 87 52 27 9 27 32 39 52 55 48 326 307 31 321 11 44 61 40 30 16 27 14 14 6 5 4 7 9 11 34 23 17 12
132 122 114 115 115 111 111 115 111 107 107 112 116 119 115 119 124 122 124 126 118 100 109 116 117 116 109 94 90 76 71 72 61 61 62 63 61 56 62 68 70 67 64 62 59 57 58 58 52 54 52 48 45 62 40 357 11 33 29 42 57 50 37 36 11 297 339 341 43 17 29 15 16 15 12 3 1 3 7 7 13 27 19 15 9
131 123 116 118 120 121 122 119 109 109 113 118 114 122 127 127 118 114 116 118 121 132 135 125 116 119 102 99 94 83 73 68 69 61 60 60 62 60 62 66 67 64 64 62 65 61 63 54 54 52 52 50 51 60 55 33 56 24 24 36 36 40 35 39 29 26 300 318 324 25 50 13 7 14 12 358 0 2 9 12 13 20 14 9 6
136 126 122 120 121 123 120 113 115 117 126 123 123 128 128 126 124 126 116 112 122 125 122 116 112 107 96 87 84 78 70 65 62 64 59 57 59 63 61 63 64 60 63 60 56 58 62 63 55 52 53 50 50 57 63 52 48 41 36 30 35 33 29 32 18 15 26 336 316 356 343 8 1 7 15 356 359 1 16 14 10 14 10 6 3
128 120 117 121 127 129 124 118 115 119 128 123 118 125 129 125 124 128 125 127 121 115 118 116 109 104 92 84 76 71 67 62 56 57 59 54 57 57 60 63 64 67 66 65 66 63 62 63 59 60 59 62 53 60 67 65 61 56 55 52 48 27 36 26 25 12 11 46 343 333 343 345 352 352 356 356 359 355 19 6 7 8 10 5 2
125 123 127 134 135 124 115 106 104 106 106 109 114 116 118 130 134 137 135 134 133 131 123 113 110 95 89 81 76 71 65 64 62 56 57 56 57 59 64 68 67 66 65 62 65 70 64 64 61 60 60 63 63 65 65 63 64 60 56 55 58 54 52 51 28 20 30 6 347 343 336 346 325 337 5 347 350 348 16 6 4 9 9 3 358